DW9246 Weather Reports


Display with metric or nautical units.
time (UTC)temp
F
wind
direction
speed
MPH
gust
MPH
rain 1hr
in
rain 24hr
in
rain mn
in
humidity
%
barometer
mb
20260503200012 58 59 3.0 5.0 0.00 0.02 0.02 77 1015.2
20260503195010 59 66 0.0 4.0 0.00 0.02 0.02 77 1015.2
20260503193012 59 72 3.0 5.0 0.00 0.02 0.02 77 1014.8
20260503192013 59 110 2.0 4.0 0.00 0.02 0.02 76 1014.9
20260503191012 59 137 1.0 3.0 0.00 0.02 0.02 77 1015.0
20260503190015 59 137 2.0 4.0 0.00 0.02 0.02 76 1014.8
20260503185015 59 137 2.0 3.0 0.00 0.02 0.02 76 1014.8
20260503184012 59 138 2.0 3.0 0.00 0.02 0.02 77 1014.9
20260503183012 58 138 2.0 6.0 0.00 0.02 0.02 77 1014.9
20260503182012 59 126 3.0 6.0 0.00 0.02 0.02 79 1014.8
20260503181014 59 134 4.0 10.0 0.00 0.02 0.02 81 1015.0
20260503180014 59 142 4.0 9.0 0.00 0.02 0.02 82 1014.9
20260503175011 59 141 6.0 10.0 0.00 0.02 0.02 82 1014.9
20260503174013 59 132 5.0 11.0 0.00 0.02 0.02 82 1014.8
20260503172014 60 137 4.0 9.0 0.00 0.02 0.02 81 1014.7
20260503171013 60 150 6.0 12.0 0.00 0.02 0.02 81 1014.9
20260503151009 62 147 7.0 15.0 0.00 0.02 0.02 77 1014.4
20260503131010 62 115 4.0 8.0 0.00 0.02 0.02 78 1015.8
20260503081010 60 82 5.0 10.0 0.00 0.00 0.00 78 1017.2
20260503072015 60 94 7.0 12.0 0.00 0.01 0.00 78 1017.0
20260503055008 59 62 6.0 11.0 0.00 0.02 0.00 80 1016.7
20260503054009 58 62 5.0 11.0 0.00 0.02 0.00 81 1016.7
20260503053010 58 61 5.0 9.0 0.00 0.03 0.00 81 1016.9
20260503050017 58 67 5.0 9.0 0.00 0.03 0.00 82 1016.9
20260503045010 58 72 5.0 9.0 0.00 0.03 0.00 82 1016.8
20260503044010 58 79 6.0 10.0 0.00 0.06 0.00 82 1016.8
20260503043009 58 77 5.0 10.0 0.00 0.09 0.00 82 1016.7
20260503042009 58 71 5.0 9.0 0.00 0.15 0.00 82 1016.8
20260503041010 59 68 6.0 11.0 0.00 0.18 0.00 82 1016.7
20260503040011 59 66 6.0 10.0 0.00 0.19 0.00 83 1016.8
20260503035012 59 68 5.0 9.0 0.00 0.23 0.00 83 1017.1
20260503034010 59 77 4.0 9.0 0.00 0.25 0.00 83 1017.1
20260503033010 59 81 5.0 9.0 0.00 0.27 0.00 83 1017.1
20260503032010 59 68 6.0 12.0 0.00 0.29 0.00 83 1017.1
20260503031010 59 71 5.0 10.0 0.00 0.31 0.00 83 1017.2
20260503030009 59 74 6.0 12.0 0.00 0.31 0.00 83 1017.2
20260503025011 59 77 5.0 9.0 0.00 0.33 0.00 83 1017.5
20260503024011 60 77 5.0 10.0 0.00 0.33 0.00 82 1017.6
20260503022011 60 75 5.0 9.0 0.00 0.33 0.00 82 1017.5
20260503021010 60 75 4.0 7.0 0.00 0.33 0.00 82 1017.6
20260503020018 60 74 3.0 6.0 0.00 0.33 0.00 82 1017.9
20260503015010 60 73 5.0 9.0 0.00 0.33 0.00 82 1017.8
20260503014009 60 76 4.0 8.0 0.00 0.33 0.00 83 1017.9
20260503013009 60 76 4.0 8.0 0.00 0.33 0.00 83 1018.1
20260503012010 60 75 4.0 9.0 0.00 0.33 0.00 83 1018.1
20260503011019 60 67 4.0 9.0 0.00 0.33 0.00 83 1018.2
20260503010024 60 68 6.0 11.0 0.00 0.33 0.00 83 1018.3
20260503005027 60 67 5.0 9.0 0.00 0.33 0.00 84 1018.3
20260503004023 60 66 5.0 9.0 0.00 0.33 0.00 84 1018.6
20260503003021 60 64 4.0 10.0 0.00 0.33 0.00 84 1018.7
20260503002020 60 77 3.0 6.0 0.00 0.33 0.00 84 1018.8
20260503001021 60 75 4.0 8.0 0.00 0.33 0.00 84 1018.8
20260503000023 60 79 4.0 8.0 0.00 0.33 0.00 84 1019.1
20260502235022 60 66 5.0 8.0 0.00 0.33 0.33 84 1019.2
20260502234023 60 60 3.0 6.0 0.00 0.33 0.33 85 1019.2
20260502233020 60 64 4.0 7.0 0.00 0.33 0.33 85 1019.3
20260502232021 60 81 3.0 7.0 0.00 0.33 0.33 85 1019.3
20260502230024 60 90 4.0 7.0 0.00 0.33 0.33 86 1019.5
20260502225021 60 89 2.0 5.0 0.00 0.33 0.33 86 1019.4
20260502222021 60 84 3.0 6.0 0.00 0.33 0.33 86 1019.5
20260502221021 60 88 4.0 7.0 0.00 0.33 0.33 86 1019.5
20260502220024 60 89 3.0 6.0 0.00 0.33 0.33 86 1019.5
20260502215021 60 93 3.0 6.0 0.00 0.33 0.33 87 1019.6
20260502214020 60 95 4.0 8.0 0.00 0.33 0.33 87 1019.6
20260502213021 60 96 3.0 7.0 0.00 0.33 0.33 87 1019.5
20260502212027 60 98 4.0 8.0 0.00 0.33 0.33 87 1019.6
20260502211021 60 90 3.0 4.0 0.00 0.33 0.33 86 1019.7
20260502210024 60 94 3.0 7.0 0.00 0.33 0.33 86 1019.8
20260502205020 60 105 3.0 7.0 0.00 0.33 0.33 86 1019.8
20260502204020 60 108 3.0 8.0 0.00 0.33 0.33 86 1019.7
20260502203021 60 102 3.0 7.0 0.00 0.33 0.33 86 1019.7
20260502202023 60 106 3.0 7.0 0.00 0.33 0.33 85 1019.7
20260502201020 60 106 3.0 7.0 0.00 0.33 0.33 85 1019.6